AO-07 1 07530U 74089B 23159.50160716 -.00000035 00000-0 70318-4 0 9991 2 07530 101.9464 146.1201 0012660 80.4389 39.7325 12.53664632222085 UO-11 1 14781U 84021B 23159.49960005 .00001509 00000-0 18346-3 0 9999 2 14781 97.6568 136.7670 0006949 222.5266 137.5412 14.84878567 92852 AO-16 1 20439U 90005D 23159.52442796 .00000200 00000-0 90014-4 0 9991 2 20439 98.8826 149.5333 0009907 224.9284 250.3597 14.33106200743662 LO-19 1 20442U 90005G 23159.51439773 .00000191 00000-0 86088-4 0 9990 2 20442 98.8431 135.8450 0011265 199.0973 160.9789 14.33260209744168 HUBBLE 1 20580U 90037B 23159.62333987 .00004537 00000-0 23864-3 0 9990 2 20580 28.4705 324.9874 0002151 291.8961 141.7364 15.13211805620163 MET-2/21 1 22782U 93055A 23159.60884685 .00000041 00000-0 23520-4 0 9999 2 22782 82.5490 91.5744 0023684 69.1835 104.2051 13.83886277503268 AO-27 1 22825U 93061C 23159.11393291 .00000139 00000-0 71361-4 0 9992 2 22825 98.8413 201.8579 0009588 94.5260 265.7017 14.30306402548998 IO-26 1 22826U 93061D 23159.53927372 .00000161 00000-0 78993-4 0 9995 2 22826 98.8359 202.1536 0010096 80.9483 279.2841 14.30667484549320 FO-29 1 24278U 96046B 23159.46577361 .00000009 00000-0 42391-4 0 9999 2 24278 98.5277 139.2097 0351330 79.5456 284.5069 13.53145656324007 NOAA-15 1 25338U 98030A 23159.59857090 .00000265 00000-0 12832-3 0 9996 2 25338 98.6058 188.8023 0009900 345.7803 14.3097 14.26329188304035 GO-32 1 25397U 98043D 23159.50687293 .00000121 00000-0 72478-4 0 9996 2 25397 98.8682 116.8881 0001960 126.7560 233.3798 14.23876594294093 ISS 1 25544U 98067A 23159.96066729 .00014695 00000-0 25934-3 0 9996 2 25544 51.6427 9.3140 0005479 64.2130 88.9677 15.50604589400513 NO-44 1 26931U 01043C 23159.53360421 .00000146 00000-0 86933-4 0 9997 2 26931 67.0506 219.1692 0008011 273.8012 86.2174 14.30922466132348 SO-50 1 27607U 02058C 23159.63588890 .00001630 00000-0 24005-3 0 9998 2 27607 64.5548 291.1453 0069859 226.4029 133.1264 14.77288551101171 CO-55 1 27844U 03031E 23159.52942938 .00000385 00000-0 19120-3 0 9996 2 27844 98.6773 166.9133 0010515 144.8447 215.3427 14.22781307 34501 CO-57 1 27848U 03031J 23159.53753920 .00000332 00000-0 16915-3 0 9993 2 27848 98.6809 167.3404 0010113 158.9855 201.1740 14.22291920 34322 RS-22 1 27939U 03042A 23159.61493792 .00001367 00000-0 24506-3 0 9997 2 27939 98.2424 306.5118 0013017 158.6187 294.2103 14.68372774 53281 NOAA-18 1 28654U 05018A 23159.63950680 .00000254 00000-0 16023-3 0 9992 2 28654 98.9096 234.0710 0014962 48.0381 312.2063 14.12948597930369 CO-58 1 28895U 05043F 23159.60610040 .00001722 00000-0 32502-3 0 9998 2 28895 98.1529 291.7320 0017604 99.3538 260.9656 14.65640945939556 CO-65 1 32785U 08021C 23159.41296609 .00003170 00000-0 31585-3 0 9999 2 32785 97.7058 125.5567 0013526 127.5224 232.7227 14.92226023819514 AAUSAT2 1 32788U 08021F 23159.16772393 .00010650 00000-0 77975-3 0 9997 2 32788 97.5588 138.7878 0008818 35.9017 324.2800 15.03714390821759 DO-64 1 32789U 08021G 23159.56887151 .00053227 00000-0 15228-2 0 9990 2 32789 97.3027 181.1189 0009201 142.4003 217.7885 15.35739457826164 CO-66 1 32791U 08021J 23158.91235036 .00005846 00000-0 51718-3 0 9999 2 32791 97.6551 130.3446 0013595 84.3555 275.9216 14.96601396820277 RS-30 1 32953U 08025A 23159.59292639 .00000039 00000-0 21179-3 0 9997 2 32953 82.5020 322.4418 0019368 200.7716 159.2578 12.43124888682582 PRISM 1 33493U 09002B 23159.28716427 .00010765 00000-0 73411-3 0 9998 2 33493 98.2455 173.1835 0018096 79.5180 280.8083 15.06300083782405 NOAA-19 1 33591U 09005A 23159.61203365 .00000228 00000-0 14751-3 0 9994 2 33591 99.0998 205.4019 0012783 266.5475 93.4234 14.12765983738733 SRMSAT 1 37841U 11058D 23159.60361328 .00000444 00000-0 98590-4 0 9994 2 37841 19.9718 261.9253 0011758 298.1203 185.5480 14.10899638601596 HRBE 1 37855U 11061F 23159.48645832 .00031447 00000-0 99146-3 0 9998 2 37855 101.7066 116.3001 0120891 67.2039 294.1902 15.25939257635235 RS-40 1 38735U 12041C 23159.61910133 .00000031 00000-0 15160-3 0 9998 2 38735 82.4782 43.4341 0016925 318.7582 41.2218 12.42594280492656 ZACUBE-1 1 39417U 13066B 23159.47206427 .00003567 00000-0 41453-3 0 9993 2 39417 97.6850 121.4443 0053670 317.7015 42.0067 14.84940270515903 Delfi-N3xt 1 39428U 13066N 23159.34140267 .00003193 00000-0 46446-3 0 9992 2 39428 97.8335 84.4917 0109598 217.1803 142.1780 14.72558585510830 GOMX-1 1 39430U 13066Q 23159.63156707 .00002781 00000-0 48733-3 0 9996 2 39430 97.7805 51.2694 0145742 1.1302 359.0201 14.61803758508280 LO-74 1 39440U 13066AA 23159.44405253 .00003882 00000-0 50224-3 0 9990 2 39440 97.7723 108.4816 0077031 56.4825 304.3716 14.79359278512864 AO-73 1 39444U 13066AE 23159.44482801 .00004964 00000-0 55198-3 0 9995 2 39444 97.6713 123.9564 0051520 302.8739 56.7525 14.86631711514349 SPROUT 1 39770U 14029E 23159.63360722 .00019600 00000-0 14989-2 0 9990 2 39770 97.9862 286.6139 0006053 330.4297 29.6584 15.01943991490870 DTUSAT-2 1 40030U 14033W 23159.56919926 .00004580 00000-0 44575-3 0 9990 2 40030 97.9673 99.9969 0009796 328.0427 32.0197 14.93009164486713 EO-80 1 40032U 14033Y 23159.34392723 .00003988 00000-0 38888-3 0 9999 2 40032 97.9677 99.7869 0009926 330.5859 29.4800 14.93014699486651 HODOYOSHI-1 1 40299U 14070B 23159.62503465 .00010285 00000-0 31928-3 0 9999 2 40299 97.1935 222.5124 0009012 313.1085 46.9403 15.33522500477494 FIREBIRD FU3 1 40377U 15003B 23159.41926666 .00160956 00000-0 11898-2 0 9996 2 40377 99.0750 115.8512 0038479 228.5060 131.2893 15.71451769463264 FIREBIRD FU4 1 40378U 15003C 23159.42375238 .00156455 00000-0 11621-2 0 9994 2 40378 99.0771 116.1817 0038851 227.7627 132.0333 15.71331177463273 GRIFEX 1 40379U 15003D 23159.59807414 .00036248 00000-0 79855-3 0 9990 2 40379 99.0783 94.2846 0079661 301.3966 57.9500 15.40484391462064 XW-2C 1 40906U 15049H 23159.56816343 .00011741 00000-0 45508-3 0 9993 2 40906 97.4934 166.6783 0011758 182.2762 177.8425 15.26238234427085 XW-2D 1 40907U 15049J 23159.59785447 .00013555 00000-0 49564-3 0 9998 2 40907 97.4915 167.2173 0011130 174.3453 185.7914 15.28139883427171 LILACSAT-2 1 40908U 15049K 23159.59777194 .00005296 00000-0 25130-3 0 9995 2 40908 97.5247 162.6796 0012952 213.3258 146.7162 15.19629932426496 XW-2E 1 40909U 15049L 23159.59974080 .00028984 00000-0 77634-3 0 9994 2 40909 97.4526 173.3735 0010658 143.0261 217.1721 15.37915377427825 XW-2F 1 40910U 15049M 23159.59369606 .00028514 00000-0 77970-3 0 9990 2 40910 97.4619 172.6032 0011376 145.7819 214.4161 15.37270316427564 XW-2B 1 40911U 15049N 23159.59260531 .00013533 00000-0 49818-3 0 9993 2 40911 97.4894 167.6543 0011053 175.9623 184.1707 15.27919062427051 DCBB 1 40912U 15049P 23159.58437152 .00037573 00000-0 84194-3 0 9994 2 40912 97.4168 177.1998 0011373 113.2141 247.0306 15.43272126428282 IO-86 1 40931U 15052B 23159.38179293 .00001153 00000-0 70186-4 0 9998 2 40931 5.9979 149.3605 0013003 172.9256 187.1055 14.77231243415938 ATHENOXAT-1 1 41168U 15077C 23159.59281625 .00145732 00000-0 18604-2 0 9991 2 41168 14.9876 288.8805 0002255 311.5960 48.4174 15.57334582414971 ChubuSat-2 1 41338U 16012B 23159.58020562 .00003819 00000-0 26375-3 0 9994 2 41338 31.0027 272.8359 0012295 92.2074 267.9970 15.03939502401083 ChubuSat-3 1 41339U 16012C 23159.64050362 .00003483 00000-0 24090-3 0 9992 2 41339 31.0089 269.5474 0012204 100.4386 259.7626 15.03801637401096 Horyu-4 1 41340U 16012D 23159.58465448 .00006633 00000-0 41666-3 0 9990 2 41340 31.0028 238.6571 0011680 155.8871 204.2314 15.07793633401422 e-st@r-II 1 41459U 16025D 23159.51751953 .00032021 00000-0 93265-3 0 9999 2 41459 98.1868 359.9410 0108857 129.2955 231.7998 15.29553441391571 AAUSAT4 1 41460U 16025E 23159.58166485 .00108928 00000-0 14792-2 0 9995 2 41460 98.1607 12.3698 0060441 85.2703 275.5448 15.55064593392436 LO-87 1 41557U 16033B 23159.61388591 .00062506 00000-0 81413-3 0 9995 2 41557 97.3880 267.1679 0007742 168.7646 191.3784 15.58508448392291 NuSat2 1 41558U 16033C 23159.61735173 .00077001 00000-0 87287-3 0 9999 2 41558 97.4164 275.1974 0007259 164.2239 195.9247 15.62109269392632 Lapan A3 1 41603U 16040E 23159.58030570 .00002821 00000-0 12473-3 0 9996 2 41603 97.1661 185.5425 0012353 355.4262 4.6860 15.22416988386183 Pratham 1 41783U 16059A 23159.34254537 .00000864 00000-0 17239-3 0 9990 2 41783 97.8688 190.8504 0034271 127.1275 233.3068 14.63945275357680 TY-1 1 41844U 16066D 23159.55949406 .00054093 00000-0 87008-3 0 9999 2 41844 97.3674 178.6283 0010690 95.5911 264.6561 15.52758063366344 CAS-2T 1 41847U 16066G 23159.20408172 .00001190 00000-0 18705-3 0 9992 2 41847 98.5044 227.7992 0359059 224.2625 132.9330 14.39659859345516 EO-88 1 42017U 17008BX 23159.14589581 .00211872 00000-0 12869-2 0 9990 2 42017 97.2081 230.1054 0002512 205.7833 154.3309 15.76900038352044 CAS-4B 1 42759U 17034B 23159.49964943 .00007042 00000-0 35803-3 0 9995 2 42759 43.0141 163.9782 0009798 40.0270 320.1299 15.17285867330310 CAS-4A 1 42761U 17034D 23159.44995127 .00006754 00000-0 34384-3 0 9993 2 42761 43.0130 162.7852 0010617 41.9229 318.2430 15.17286047330318 NIUSat 1 42766U 17036B 23159.09373325 .00027146 00000-0 70421-3 0 9991 2 42766 97.1566 190.6100 0012207 131.1206 229.1096 15.38891965331218 Aalto 1 1 42775U 17036L 23159.53275642 .00016651 00000-0 48810-3 0 9999 2 42775 97.1518 189.8291 0011822 130.9961 229.2307 15.35193311331193 URSA MAIOR 1 42776U 17036M 23159.08561951 .00021120 00000-0 58266-3 0 9994 2 42776 97.1531 190.7056 0011505 129.7571 230.4689 15.37047221331197 Max Valier Sat 1 42778U 17036P 23159.06172574 .00024657 00000-0 65022-3 0 9999 2 42778 97.1552 194.1241 0010358 128.6146 231.6029 15.38428093331324 Pegasus 1 42784U 17036V 23159.35159845 .00041726 00000-0 83653-3 0 9990 2 42784 97.1468 196.8791 0009152 124.6402 235.5712 15.46554355331611 SUCHAI 1 1 42788U 17036Z 23159.10550404 .00073148 00000-0 10402-2 0 9997 2 42788 97.1442 200.2774 0008271 126.0450 234.1573 15.56097372331889 SKCUBE 1 42789U 17036AA 23159.08409590 .00053457 00000-0 91771-3 0 9994 2 42789 97.1447 198.7385 0008593 122.7903 237.4178 15.50956972331709 VENTA 1 1 42791U 17036AC 23159.56517908 .00037818 00000-0 75144-3 0 9992 2 42791 97.1484 198.2717 0008561 121.6539 238.5548 15.46840555331702 Robusta 1B 1 42792U 17036AD 23159.58155459 .00067093 00000-0 10198-2 0 9999 2 42792 97.1424 200.4410 0007349 121.1444 239.0532 15.54306685331873 D-SAT 1 42794U 17036AF 23159.50613895 .00004708 00000-0 37500-3 0 9997 2 42794 97.4641 151.9693 0115771 331.7595 27.7380 14.95648829324639 TechnoSat 1 42829U 17042E 23159.54722430 .00002399 00000-0 23219-3 0 9999 2 42829 97.3894 357.5077 0011988 252.5244 107.4666 14.93580501321206 AO-91 1 43017U 17073E 23159.16366188 .00008168 00000-0 56737-3 0 9996 2 43017 97.6313 43.8590 0235517 99.0352 263.7596 14.85951572299843 PICSAT 1 43132U 18004X 23159.18003031 .00070773 00000-0 97889-3 0 9990 2 43132 97.3283 242.1563 0005866 160.7515 199.3963 15.56877690301143 AO-92 1 43137U 18004AC 23159.45954257 .00035060 00000-0 73132-3 0 9995 2 43137 97.3282 238.5605 0006741 161.9859 198.1630 15.45451416300969 TianYi 2 1 43155U 18008A 23159.59254754 .00017153 00000-0 68194-3 0 9994 2 43155 97.2982 212.3199 0011784 345.8405 14.2502 15.25295631297342 Zhou Enlai 1 43156U 18008B 23159.60567543 .00019826 00000-0 77536-3 0 9999 2 43156 97.3030 212.4345 0009429 347.9011 12.1999 15.25837554297276 TianYi 6 1 43158U 18008D 23159.59072137 .00014044 00000-0 60322-3 0 9991 2 43158 97.3032 209.3990 0009629 352.8839 7.2260 15.22751695297113 S-Net D 1 43186U 18014G 23159.24646668 .00002852 00000-0 23110-3 0 9995 2 43186 97.6320 63.2221 0015097 188.0745 172.0238 15.00408163292219 S-Net B 1 43187U 18014H 23159.31421182 .00002899 00000-0 23493-3 0 9991 2 43187 97.6311 63.2180 0015319 186.1157 173.9882 15.00398554292225 S-Net A 1 43188U 18014J 23159.51441971 .00002831 00000-0 22948-3 0 9992 2 43188 97.6317 63.5014 0015351 185.7034 174.4017 15.00402151292254 S-Net C 1 43189U 18014K 23159.31649933 .00003077 00000-0 24909-3 0 9991 2 43189 97.6302 63.1976 0015648 182.6704 177.4439 15.00386202290775 Shaonian Xing 1 43199U 18015H 23159.62753915 .00167189 00000-0 11359-2 0 9992 2 43199 97.5438 318.6284 0008371 207.3046 152.7779 15.74400968298479 CubeBel-1 1 43666U 18083E 23159.61413763 .00030432 00000-0 82573-3 0 9996 2 43666 97.3804 191.1688 0011425 145.4933 214.7056 15.37494904255883 Changshagaoxin 1 43669U 18083H 23159.62949182 .00025126 00000-0 76041-3 0 9996 2 43669 97.3795 185.8608 0009159 143.6991 216.4875 15.34134944255635 Ten-Koh 1 43677U 18084G 23159.36874653 .00002172 00000-0 21437-3 0 9992 2 43677 98.0127 299.0961 0015313 173.1629 186.9801 14.92986566250741 PO-101 1 43678U 18084H 23159.61250531 .00001875 00000-0 18422-3 0 9993 2 43678 98.0220 303.4098 0009502 182.0067 178.1116 14.93400467250985 QO-100 1 43700U 18090A 23159.33504192 .00000144 00000-0 00000-0 0 9998 2 43700 0.0171 13.2974 0001827 95.6352 293.9287 1.00271357 16596 Reaktor Hello World 1 43743U 18096AA 23159.20023814 .00060971 00000-0 83142-3 0 9999 2 43743 97.3169 245.9708 0010415 205.8339 154.2398 15.57255943252775 MinXSS-2 1 43758U 18099A 23159.39526220 .00007704 00000-0 59832-3 0 9991 2 43758 97.6004 223.6731 0017503 151.3876 208.8313 15.01485171246422 AO-95 1 43770U 18099N 23159.15186941 .00004614 00000-0 37747-3 0 9999 2 43770 97.5712 220.9362 0012681 162.5853 197.5808 14.99749843246251 RANGE-B 1 43772U 18099Q 23159.43363178 .00006851 00000-0 53402-3 0 9992 2 43772 97.5784 223.9467 0009782 124.1277 236.0876 15.01466567246351 RANGE-A 1 43773U 18099R 23159.38751422 .00004577 00000-0 38730-3 0 9990 2 43773 97.5645 219.2711 0014195 140.5476 219.6783 14.98431814246249 MOVE-II 1 43780U 18099Y 23159.18671381 .00009886 00000-0 72680-3 0 9991 2 43780 97.5717 223.4031 0009609 176.2910 183.8388 15.03573500246386 SNUSat 2 1 43782U 18099AA 23159.11643792 .00005265 00000-0 43098-3 0 9999 2 43782 97.5715 221.4084 0014548 138.4709 221.7622 14.99648043246276 SnugLite 1 43784U 18099AC 23159.40381636 .00005159 00000-0 41597-3 0 9993 2 43784 97.5750 221.3573 0011354 145.2242 214.9726 15.00273517246350 ITASat 1 1 43786U 18099AE 23159.41906797 .00003861 00000-0 31911-3 0 9994 2 43786 97.5755 222.2289 0013580 149.3346 210.8674 14.99442547246337 EAGLET 1 1 43790U 18099AJ 23159.12445204 .00004330 00000-0 36103-3 0 9998 2 43790 97.5750 222.4123 0014260 148.1242 212.0847 14.99036982246028 ESEO 1 43792U 18099AL 23159.40789278 .00001580 00000-0 13984-3 0 9999 2 43792 97.5704 221.1891 0013462 147.9027 212.3018 14.97611054246073 CSIM 1 43793U 18099AM 23159.41776090 .00009214 00000-0 66853-3 0 9994 2 43793 97.5749 224.9408 0017238 153.0002 207.2124 15.04009878246260 Astrocast 0.1 1 43798U 18099AS 23159.41686135 .00008511 00000-0 64443-3 0 9991 2 43798 97.5827 224.3005 0013589 130.5657 229.6754 15.02465341246457 JO-97 1 43803U 18099AX 23159.11452962 .00006201 00000-0 49252-3 0 9999 2 43803 97.5691 221.9149 0014370 121.3761 238.8871 15.00737198246337 Suomi 100 1 43804U 18099AY 23159.17560291 .00005636 00000-0 45153-3 0 9998 2 43804 97.5664 221.7873 0018671 138.1739 222.0916 15.00394308246347 Al Farabi 2 1 43805U 18099AZ 23159.39486305 .00008519 00000-0 65157-3 0 9995 2 43805 97.5588 223.0147 0012708 131.9029 228.3282 15.02087499246437 CHOMPTT 1 43855U 18104G 23159.53070261 .00021874 00000-0 54586-3 0 9996 2 43855 85.0298 172.0442 0011259 7.5040 352.6377 15.39987426249241 ISAT 1 43879U 18111D 23159.50341465 .00005534 00000-0 42278-3 0 9994 2 43879 97.6423 64.0845 0014051 185.1997 174.9084 15.02282894243038 UWE-4 1 43880U 18111E 23159.23089659 .00005941 00000-0 45545-3 0 9992 2 43880 97.6310 64.5513 0017560 200.8728 159.1782 15.02078286243024 Sparrow 1 43881U 18111F 23159.51272082 .00005408 00000-0 40965-3 0 9997 2 43881 97.6493 65.4266 0009396 228.7937 131.2478 15.02660323243089 Lume 1 1 43908U 18111AJ 23159.21440606 .00032797 00000-0 67210-3 0 9996 2 43908 97.1403 42.6087 0011115 222.6601 137.3786 15.45940749248002 FO-99 1 43937U 19003F 23159.52781083 .00051123 00000-0 84559-3 0 9999 2 43937 97.0855 186.8480 0009202 308.3117 51.7308 15.52007736244700 AstroCast 0.2 1 44083U 19018F 23159.38275638 .00049297 00000-0 89475-3 0 9997 2 44083 97.2655 219.0959 0003484 255.4846 104.6019 15.49427725233053 AISTechSat 3 1 44103U 19018AB 23159.57987541 .00025385 00000-0 62312-3 0 9997 2 44103 97.2529 218.0993 0007009 304.7068 55.3518 15.40647750233187 AISat 1 1 44104U 19018AC 23159.20912780 .00017612 00000-0 34639-3 0 9996 2 44104 97.3732 250.3910 0039321 290.9690 68.7354 15.46470224234332 Prox-1 1 44339U 19036A 23159.27552509 .00006622 00000-0 13266-2 0 9993 2 44339 24.0004 101.1892 0010284 166.0795 193.9982 14.59329507210296 Move-IIb 1 44398U 19038N 23159.52141672 .00049380 00000-0 12447-2 0 9991 2 44398 97.6597 141.9281 0011098 332.2604 27.8048 15.39661096217339 SONATE 1 44400U 19038Q 23159.48290495 .00010958 00000-0 49259-3 0 9999 2 44400 97.6839 136.9507 0019936 348.1612 11.9152 15.21134546216910 BeeSat 9 1 44412U 19038AC 23159.44597652 .00023053 00000-0 80311-3 0 9997 2 44412 97.6742 139.7998 0014172 345.3373 14.7454 15.29575014216824 JAISAT-1 1 44419U 19038F 23159.46293093 .00022035 00000-0 76059-3 0 9991 2 44419 97.6735 140.8964 0013260 342.1032 17.9738 15.29897033217204 Taurus 1 1 44530U 19059C 23159.58826112 .00004357 00000-0 11344-2 0 9997 2 44530 98.5546 267.2564 0014555 119.3697 240.8952 14.50025519197394 Duchifat 3 1 44854U 19089C 23159.32354319 .00007290 00000-0 49350-3 0 9994 2 44854 36.9608 144.2540 0010408 246.1217 113.8436 15.06105937191560 OPS-SAT 1 44878U 19092F 23159.51892596 .00025416 00000-0 76809-3 0 9998 2 44878 97.4756 348.1584 0009947 160.5598 199.6026 15.34171534192466 TO-108 1 44881U 19093C 23159.59008360 .00001078 00000-0 14045-3 0 9991 2 44881 97.8618 238.1874 0016160 105.1890 255.1112 14.82518490187529 FloripaSat 1 1 44885U 19093G 23159.59325408 .00003825 00000-0 44572-3 0 9990 2 44885 97.8676 240.8503 0015124 107.9363 252.3503 14.85748366187679 RS-44 1 44909U 19096E 23159.54421025 .00000011 00000-0 50366-6 0 9992 2 44909 82.5218 353.6902 0216920 206.9389 152.0319 12.79720981161059 BY70-2 1 45857U 20042B 23159.61605634 .00017359 00000-0 17946-2 0 9992 2 45857 97.9247 239.4864 0008526 45.8790 314.3127 14.90146978158261 UPMSat 2 1 46276U 20061E 23159.15315273 .00008284 00000-0 35187-3 0 9990 2 46276 97.3461 226.9230 0001959 60.7238 299.4195 15.23312569152915 AmicalSat 1 46287U 20061R 23159.12355666 .00012470 00000-0 58391-3 0 9993 2 46287 97.4000 225.8039 0003679 116.9707 243.1904 15.19854847152333 SALSAT 1 46495U 20068K 23159.36023772 .00003869 00000-0 25740-3 0 9991 2 46495 97.7696 107.2707 0016577 144.8363 215.3962 15.07651702147748 CAPE 3 1 47309U 21002A 23159.28680587 .00032584 00000-0 79545-3 0 9997 2 47309 60.6776 94.3341 0013674 182.2429 177.8608 15.40601188132917 AO-109 1 47311U 21002C 23159.21137094 .00025563 00000-0 67041-3 0 9990 2 47311 60.6813 93.0352 0013599 172.2655 187.8652 15.38525232132907 MiTEE 1 1 47314U 21002F 23159.05770723 .01186734 76773-3 19988-2 0 9995 2 47314 60.6562 55.6200 0009746 233.6626 126.3599 16.02430036133544 ExoCube 2 1 47319U 21002L 23159.40171444 .00023670 00000-0 63689-3 0 9997 2 47319 60.6792 94.4231 0013781 177.7577 182.3581 15.37770127132868 UVSQ-SAT 1 47438U 21006AB 23159.10309867 .00015411 00000-0 63499-3 0 9995 2 47438 97.3841 216.3422 0011512 113.5760 246.6688 15.24122345131265 YUSAT 1 1 47439U 21006AC 23159.14332276 .00019589 00000-0 75000-3 0 9991 2 47439 97.3850 217.1032 0010955 112.6492 247.5906 15.26533316131319 SOMP 2b 1 47445U 21006AJ 23159.15298202 .00014364 00000-0 60502-3 0 9996 2 47445 97.3808 215.6573 0011413 117.7050 242.5346 15.23395234131245 IDEASSat 1 47458U 21006AX 23159.59083300 .00012908 00000-0 55339-3 0 9993 2 47458 97.3902 216.8644 0010749 115.7141 244.5207 15.22828155131291 CubeSX-Sirius-HSE 1 47951U 21022V 23159.61288623 .00009285 00000-0 52328-3 0 9996 2 47951 97.4976 57.1080 0019088 10.5798 349.5831 15.13259580121733 CubeSX-HSE 1 47952U 21022W 23159.65259963 .00009683 00000-0 54454-3 0 9990 2 47952 97.4979 57.1932 0018961 10.1079 350.0530 15.13327297121745 KSU-Cubesat 1 47954U 21022Y 23159.24679450 .00010450 00000-0 57403-3 0 9995 2 47954 97.4983 57.1579 0018344 11.0974 349.0659 15.14156780121421 GRBAlpha 1 47959U 21022AD 23159.63970217 .00009517 00000-0 53410-3 0 9994 2 47959 97.4982 57.2618 0018842 10.7806 349.3825 15.13407075120560 Orbicraft-Zorkiy 1 47960U 21022AE 23159.60087886 .00010729 00000-0 59046-3 0 9992 2 47960 97.5008 57.6381 0018439 9.4976 350.6601 15.14078517121269 STECCO 1 47962U 21022AG 23159.63920011 .00018195 00000-0 84844-3 0 9992 2 47962 97.4978 59.9791 0012537 2.8797 357.2508 15.19853293120745 DO-111 1 47963U 21022AH 23159.27632436 .00233424 00000-0 29872-2 0 9997 2 47963 97.4954 67.4156 0002951 64.6830 295.4731 15.58409232121208 MO-110 1 47964U 21022AJ 23159.29850636 .00018818 00000-0 85695-3 0 9998 2 47964 97.4993 60.2259 0014359 357.8148 2.3021 15.20640454120726 FEES 1 48082U 21022AL 23159.22164887 .00034624 00000-0 13130-2 0 9996 2 48082 97.4984 61.3150 0009558 356.5818 3.5354 15.26747612120491 TUBIN 1 48900U 21059X 23159.59357051 .00008254 00000-0 39411-3 0 9993 2 48900 97.5995 293.1392 0007998 316.4392 43.6210 15.19286287107875 IT-SPINS 1 49017U 21013G 23159.27727053 .00031054 00000-0 72560-3 0 9997 2 49017 51.5913 122.3905 0005438 314.7009 45.3532 15.41887085108337 LEDSAT 1 49069U 21073D 23159.06651558 .00009288 00000-0 51107-3 0 9991 2 49069 97.4821 230.0957 0025208 149.4098 210.8610 15.13996905 99520 CUTE 1 49263U 21088D 23159.13421722 .00009207 00000-0 59286-3 0 9996 2 49263 97.5436 225.0901 0016350 294.1873 65.7646 15.08464996 92926 TeikyoSat 4 1 49396U 21102B 23159.60548156 .00001975 00000-0 15387-3 0 9991 2 49396 97.5157 211.8617 0017549 110.5206 249.7904 15.02217801 86482 Z-Sat 1 49399U 21102E 23159.57385553 .00003956 00000-0 28302-3 0 9992 2 49399 97.4832 212.9349 0023301 98.9970 261.3895 15.04778728 86591 KOSEN 1 1 49402U 21102H 23159.39229396 .00004073 00000-0 27809-3 0 9991 2 49402 97.4769 213.2546 0022647 89.0565 271.3257 15.06521457 86636 HO-113 1 50466U 21131B 23159.61673418 .00000603 00000-0 21005-3 0 9995 2 50466 98.5519 241.1881 0004893 152.3196 207.8252 14.38911297 76123 Tevel-3 1 50988U 22002E 23159.58308474 .00018213 00000-0 73641-3 0 9994 2 50988 97.4330 226.6087 0006411 256.3791 103.6733 15.24765149 77454 Tevel-8 1 50989U 22002F 23159.60146082 .00018690 00000-0 75703-3 0 9993 2 50989 97.4345 226.6852 0006492 255.2687 104.7831 15.24699065 77456 Tevel-5 1 50998U 22002Q 23159.59790781 .00019475 00000-0 76809-3 0 9992 2 50998 97.4323 226.9968 0007720 250.8288 109.2115 15.25575260 77485 Tevel-6 1 50999U 22002R 23159.59643134 .00019433 00000-0 76645-3 0 9994 2 50999 97.4321 226.9901 0007722 250.5193 109.5211 15.25575265 77480 Tevel-1 1 51013U 22002AF 23159.59262806 .00018680 00000-0 75619-3 0 9998 2 51013 97.4323 226.5624 0006370 255.8150 104.2380 15.24719867 77450 Grizu-263a 1 51025U 22002AT 23159.47460816 .00077755 00000-0 16931-2 0 9998 2 51025 97.4472 231.8133 0007978 233.9179 126.1331 15.43972021 77717 NO-116 1 51031U 22002AZ 23158.90733396 .00031417 00000-0 10160-2 0 9991 2 51031 97.4451 228.7682 0008473 251.0258 109.0066 15.31978515 77485 IRIS-A 1 51044U 22002BN 23159.18214347 .00009136 00000-0 43658-3 0 9998 2 51044 97.4343 224.7770 0006615 268.1254 91.9223 15.19223309 77297 Tevel-7 1 51062U 22002CG 23159.60255712 .00018635 00000-0 75444-3 0 9998 2 51062 97.4340 226.6598 0006492 254.7993 105.2527 15.24715869 77454 Tevel-4 1 51063U 22002CH 23159.60834709 .00018215 00000-0 73867-3 0 9999 2 51063 97.4340 226.6497 0006485 254.7746 105.2774 15.24664661 77458 Tevel-2 1 51069U 22002CP 23159.65055195 .00018628 00000-0 75295-3 0 9999 2 51069 97.4327 226.6475 0006418 255.6570 104.3955 15.24769903 77463 DELFI-PQ 1 51074U 22002CU 23159.39884872 .00038009 00000-0 11061-2 0 9993 2 51074 97.4588 231.5828 0008185 276.3369 83.6942 15.35295020 77656 SO-115 1 51080U 22002DA 23159.41455223 .00022331 00000-0 80884-3 0 9998 2 51080 97.4593 230.1263 0008991 288.3990 71.6271 15.28361767 77550 SO-114 1 51081U 22002DB 23159.40338914 .00022529 00000-0 81188-3 0 9992 2 51081 97.4597 230.0876 0009208 288.0180 72.0056 15.28524333 77550 OreSat0 1 52017U 22026K 23159.51098809 .00016450 00000-0 66432-3 0 9997 2 52017 97.5089 161.8786 0024695 113.2386 247.1455 15.24562488 68223 Planetum 1 1 52738U 22057G 23159.26284473 .00013116 00000-0 61009-3 0 9998 2 52738 97.5379 275.2280 0007067 30.0620 330.1019 15.20062752 57306 Foresail-1 1 52766U 22057AL 23159.63136702 .00008505 00000-0 40555-3 0 9990 2 52766 97.5495 276.4877 0011846 6.5920 353.5468 15.19285652 57381 SNUGLITE 2 1 52899U 22065F 23159.37397186 .00001187 00000-0 26069-3 0 9995 2 52899 98.0682 304.4615 0006873 238.9096 121.1430 14.59284878 49575 CTIM 1 52950U 22074G 23159.12676209 .00051108 00000-0 11605-2 0 9999 2 52950 44.9986 49.9152 0012726 175.5089 184.5916 15.42253656 52208 IO-117 1 53106U 22080B 23156.84588440 -.00000003 00000-0 00000+0 0 9998 2 53106 70.1624 323.6621 0008403 187.6285 172.4247 6.42557080 21021 AstroBioCubeSat 1 53107U 22080C 23025.30817895 -.00000003 00000-0 00000-0 0 9995 2 53107 70.1710 9.4734 0013545 210.3158 149.6718 6.42110537 12478 SelfieSat 1 53951U 22057BC 23159.30474733 .00015828 00000-0 70161-3 0 9992 2 53951 97.5426 275.8788 0008584 20.2688 339.8887 15.21665557 57331 FO-118 1 54684U 22167C 23159.61607387 .00010351 00000-0 57489-3 0 9999 2 54684 97.5619 297.2539 0013276 9.9213 350.2278 15.13835336 27381 KILICSAT 1 56181U 23054D 23159.63786337 .00011783 00000-0 51138-3 0 9999 2 56181 97.4052 54.6476 0011589 70.7428 289.5061 15.22425166 8872 SSS-2B 1 56184U 23054G 23159.63339324 .00012706 00000-0 54853-3 0 9995 2 56184 97.4114 54.6984 0012971 70.3929 289.8707 15.22571358 8871 CIRBE 1 56188U 23054L 23159.49004836 .00013446 00000-0 57292-3 0 9992 2 56188 97.4063 54.5498 0011732 65.9211 294.3252 15.23016314 8856 INSPIRE-Sat 7 1 56211U 23054AK 23159.50356373 .00016122 00000-0 65352-3 0 9997 2 56211 97.4092 54.7040 0016170 49.4635 310.8008 15.24602492 8861 RoseyCubesat 1 1 56212U 23054AL 23158.51344643 .00016952 00000-0 68313-3 0 9996 2 56212 97.4101 53.7423 0016649 51.9255 308.3482 15.24782067 8713 ARKSAT 1 1 56311U 98067VC 23158.87255964 .00059206 00000-0 83900-3 0 9996 2 56311 51.6396 13.6250 0004837 71.6560 288.4957 15.55881291 6916 AuroraSat 1 56312U 98067VD 23159.12478522 .00072295 00000-0 99913-3 0 9997 2 56312 51.6389 12.3084 0004022 71.2015 288.9412 15.56477725 6989 Ex-Alta 2 1 56313U 98067VE 23159.57941696 .00057195 00000-0 80789-3 0 9997 2 56313 51.6388 10.0947 0004537 71.5890 288.5594 15.55984881 7047 LightCube 1 56314U 98067VF 23159.57695531 .00066603 00000-0 92408-3 0 9997 2 56314 51.6387 10.0776 0004319 44.3565 315.7772 15.56405416 7079 NEUDOSE 1 56315U 98067VG 23159.02278538 .00043820 00000-0 65485-3 0 9993 2 56315 51.6386 13.1255 0005941 50.4718 309.6797 15.54557289 6932 YukonSat 1 56316U 98067VH 23158.88592015 .00052411 00000-0 76320-3 0 9992 2 56316 51.6387 13.7122 0005206 47.8156 312.3277 15.55191210 6936 SNIPE 4 1 56744U 23072B 23159.57641711 .00005473 00000-0 36690-3 0 9998 2 56744 97.5520 346.6347 0007078 245.5955 114.4534 15.07255798 2133 SNIPE 2 1 56745U 23072C 23159.57519144 .00005495 00000-0 36698-3 0 9995 2 56745 97.5529 346.6376 0007364 249.6234 110.4204 15.07389858 2133 /EX